GW5652 Weather Reports


Display with metric or nautical units.
time (UTC)temp
F
wind
direction
speed
MPH
gust
MPH
rain 1hr
in
rain 24hr
in
rain mn
in
humidity
%
barometer
mb
20260503190134 75 330 3.0 5.0 0.00 0.00 0.00 56 1011.9
20260503185631 75 329 4.0 7.0 0.00 0.00 0.00 56 1012.0
20260503185126 75 311 3.0 6.0 0.00 0.00 0.00 58 1011.9
20260503184621 74 342 5.0 7.0 0.00 0.00 0.00 58 1012.0
20260503184118 74 341 4.0 7.0 0.00 0.00 0.00 57 1012.0
20260503183615 74 335 4.0 8.0 0.00 0.00 0.00 58 1012.1
20260503183112 75 322 2.0 6.0 0.00 0.00 0.00 57 1012.1
20260503182610 74 342 5.0 8.0 0.00 0.00 0.00 57 1012.2
20260503182108 73 330 6.0 7.0 0.00 0.00 0.00 60 1012.2
20260503181604 72 338 4.0 8.0 0.00 0.00 0.00 62 1012.2
20260503181101 72 324 3.0 7.0 0.00 0.00 0.00 62 1012.2
20260503180558 72 343 5.0 7.0 0.00 0.00 0.00 63 1012.1
20260503180056 71 302 3.0 7.0 0.00 0.00 0.00 65 1012.1
20260503175553 72 356 2.0 5.0 0.00 0.00 0.00 62 1012.2
20260503175050 74 349 3.0 4.0 0.00 0.00 0.00 60 1012.2
20260503174547 71 75 1.0 5.0 0.00 0.00 0.00 63 1012.2
20260503174043 71 54 4.0 7.0 0.00 0.00 0.00 62 1012.5
20260503173538 71 356 3.0 9.0 0.00 0.00 0.00 61 1012.3
20260503173035 71 346 4.0 5.0 0.00 0.00 0.00 61 1012.4
20260503172533 71 74 2.0 5.0 0.00 0.00 0.00 60 1012.2
20260503172029 69 359 2.0 8.0 0.00 0.00 0.00 65 1012.2
20260503171526 71 11 2.0 4.0 0.00 0.00 0.00 62 1012.3
20260503171023 72 55 2.0 5.0 0.00 0.00 0.00 60 1012.4
20260503170519 72 324 1.0 3.0 0.00 0.00 0.00 60 1012.3
20260503150912 58 356 2.0 3.0 0.00 0.00 0.00 87 1012.5
20260503150408 58 33 0.0 2.0 0.00 0.00 0.00 87 1012.4
20260503131302 52 85 3.0 3.0 0.00 0.00 0.00 92 1012.3
20260503130759 53 69 4.0 5.0 0.00 0.00 0.00 91 1012.0
20260503130256 53 133 2.0 4.0 0.00 0.00 0.00 91 1012.1
20260503110650 54 329 0.0 2.0 0.00 0.00 0.00 90 1012.3
20260503110147 54 350 2.0 2.0 0.00 0.00 0.00 91 1012.2
20260503100114 55 331 2.0 4.0 0.00 0.00 0.00 89 1012.5
20260503081503 57 333 1.0 3.0 0.00 0.00 0.00 87 1012.8
20260503081000 57 355 2.0 4.0 0.00 0.00 0.00 85 1013.1
20260503080456 58 329 2.0 3.0 0.00 0.00 0.00 85 1012.9
20260503072933 58 274 1.0 2.0 0.00 0.00 0.00 84 1013.2
20260503072430 58 290 0.0 2.0 0.00 0.00 0.00 84 1013.0
20260503071928 58 285 2.0 3.0 0.00 0.00 0.00 83 1013.2
20260503071424 58 260 2.0 4.0 0.00 0.00 0.00 83 1013.0
20260503070920 58 154 0.0 4.0 0.00 0.00 0.00 83 1013.1
20260503070418 58 268 2.0 3.0 0.00 0.00 0.00 83 1013.0
20260503060344 60 75 2.0 3.0 0.00 0.00 0.00 82 1013.1
20260503054831 60 75 3.0 3.0 0.00 0.00 0.00 82 1013.3
20260503054327 60 61 2.0 3.0 0.00 0.00 0.00 81 1013.1
20260503053825 60 76 3.0 4.0 0.00 0.00 0.00 79 1013.2
20260503053323 61 68 2.0 3.0 0.00 0.00 0.00 78 1013.2
20260503052819 62 336 0.0 2.0 0.00 0.00 0.00 77 1013.2
20260503052316 61 58 1.0 3.0 0.00 0.00 0.00 77 1013.1
20260503051812 62 355 0.0 3.0 0.00 0.00 0.00 77 1013.0
20260503051309 62 299 2.0 3.0 0.00 0.00 0.00 77 1013.3
20260503050806 62 338 2.0 4.0 0.00 0.00 0.00 76 1013.2
20260503050302 62 69 3.0 4.0 0.00 0.00 0.00 76 1013.2
20260503045800 62 271 2.0 4.0 0.00 0.00 0.00 77 1013.1
20260503045257 62 293 2.0 3.0 0.00 0.00 0.00 78 1012.8
20260503044753 62 290 3.0 4.0 0.00 0.00 0.00 76 1013.1
20260503044250 62 293 5.0 5.0 0.00 0.00 0.00 76 1013.1
20260503043748 62 302 5.0 7.0 0.00 0.00 0.00 76 1013.2
20260503043245 63 314 6.0 8.0 0.00 0.00 0.00 75 1013.1
20260503042740 62 295 2.0 6.0 0.00 0.00 0.00 77 1013.1
20260503042237 62 320 4.0 6.0 0.00 0.00 0.00 76 1013.2
20260503041733 62 301 3.0 6.0 0.00 0.00 0.00 77 1013.2
20260503041231 63 314 6.0 7.0 0.00 0.00 0.00 76 1013.1
20260503040729 63 297 4.0 7.0 0.00 0.00 0.00 75 1013.0
20260503040226 63 317 4.0 8.0 0.00 0.00 0.00 76 1012.9
20260503035723 62 297 5.0 9.0 0.00 0.00 0.00 77 1012.7
20260503035221 62 306 4.0 7.0 0.00 0.00 0.00 78 1012.6
20260503034718 62 313 3.0 8.0 0.00 0.00 0.00 79 1012.7
20260503034214 62 311 4.0 7.0 0.00 0.00 0.00 79 1012.8
20260503033712 62 298 8.0 9.0 0.00 0.00 0.00 79 1012.5
20260503033209 62 311 5.0 9.0 0.00 0.00 0.00 79 1012.5
20260503032708 62 308 4.0 8.0 0.00 0.00 0.00 78 1012.4
20260503032206 63 308 5.0 8.0 0.00 0.00 0.00 76 1012.6
20260503031702 63 348 2.0 8.0 0.00 0.00 0.00 75 1012.4
20260503031200 62 324 3.0 6.0 0.00 0.00 0.00 75 1012.1
20260503030656 62 304 4.0 11.0 0.00 0.00 0.00 75 1012.2
20260503030153 63 309 9.0 9.0 0.00 0.00 0.00 74 1012.3
20260503025650 63 297 7.0 9.0 0.00 0.00 0.00 74 1012.2
20260503025148 63 293 4.0 8.0 0.00 0.00 0.00 74 1012.3
20260503024644 63 317 4.0 6.0 0.00 0.00 0.00 75 1012.3
20260503024142 63 315 0.0 5.0 0.00 0.00 0.00 74 1012.4
20260503023639 64 305 3.0 4.0 0.00 0.00 0.00 73 1012.6
20260503023136 64 315 2.0 2.0 0.00 0.00 0.00 73 1012.7
20260503022632 64 298 0.0 2.0 0.00 0.00 0.00 72 1012.9
20260503022131 64 296 0.0 4.0 0.00 0.00 0.00 74 1012.7
20260503021628 65 240 0.0 1.0 0.00 0.00 0.00 71 1012.8
20260503021125 65 256 0.0 2.0 0.00 0.00 0.00 72 1013.0
20260503020622 64 125 0.0 7.0 0.00 0.00 0.00 71 1013.5
20260503020120 65 156 5.0 11.0 0.00 0.00 0.00 72 1013.6
20260503015616 65 145 7.0 11.0 0.00 0.00 0.00 73 1013.6
20260503015113 65 155 6.0 11.0 0.00 0.00 0.00 73 1013.3
20260503014609 65 143 5.0 11.0 0.00 0.00 0.00 71 1013.3
20260503014107 66 130 5.0 9.0 0.00 0.00 0.00 70 1013.1
20260503013604 66 126 4.0 7.0 0.00 0.00 0.00 68 1013.1
20260503013102 66 156 4.0 5.0 0.00 0.00 0.00 67 1012.8
20260503012559 67 164 3.0 5.0 0.00 0.00 0.00 68 1012.8
20260503012055 67 156 2.0 4.0 0.00 0.00 0.00 68 1012.8
20260503011552 67 140 3.0 7.0 0.00 0.00 0.00 67 1012.7
20260503011049 68 130 3.0 4.0 0.00 0.00 0.00 65 1012.8
20260503010545 68 162 3.0 3.0 0.00 0.00 0.00 64 1012.7
20260503010043 67 141 3.0 4.0 0.00 0.00 0.00 64 1012.7
20260503005540 67 147 0.0 3.0 0.00 0.00 0.00 64 1012.8
20260503005037 68 164 1.0 3.0 0.00 0.00 0.00 64 1012.8
20260503004533 68 77 1.0 5.0 0.00 0.00 0.00 65 1012.8
20260503004032 67 51 3.0 6.0 0.00 0.00 0.00 66 1012.7
20260503003528 68 97 3.0 4.0 0.00 0.00 0.00 65 1012.7
20260503003025 69 113 1.0 5.0 0.00 0.00 0.00 62 1012.6
20260503002522 69 5 1.0 3.0 0.00 0.00 0.00 61 1012.6
20260503002019 70 77 2.0 4.0 0.00 0.00 0.00 61 1012.5
20260503001515 70 25 0.0 5.0 0.00 0.00 0.00 60 1012.6
20260503001013 69 52 0.0 5.0 0.00 0.00 0.00 61 1012.5
20260503000510 69 82 4.0 7.0 0.00 0.00 0.00 61 1012.5
20260503000007 70 66 4.0 7.0 0.00 0.00 0.00 60 1012.3
20260502235504 69 316 4.0 6.0 0.00 0.00 0.00 62 1012.8
20260502235002 68 346 7.0 9.0 0.00 0.00 0.00 62 1012.5
20260502234458 69 343 5.0 6.0 0.00 0.00 0.00 61 1012.7
20260502233956 68 346 5.0 6.0 0.00 0.00 0.00 62 1012.7
20260502233455 69 316 4.0 8.0 0.00 0.00 0.00 63 1012.9
20260502232953 66 341 4.0 7.0 0.00 0.00 0.00 64 1013.0
20260502232449 67 292 2.0 5.0 0.00 0.00 0.00 63 1013.2
20260502231946 67 305 1.0 7.0 0.00 0.00 0.00 64 1012.9
20260502231443 70 308 5.0 6.0 0.00 0.00 0.00 60 1013.0
20260502230941 68 126 0.0 4.0 0.00 0.00 0.00 62 1013.1
20260502230439 66 62 5.0 5.0 0.00 0.00 0.00 65 1013.3
20260502225937 66 99 3.0 6.0 0.00 0.00 0.00 64 1013.4
20260502225432 67 65 3.0 5.0 0.00 0.00 0.00 64 1013.5
20260502224930 67 89 0.0 4.0 0.00 0.00 0.00 62 1013.6
20260502224426 67 116 0.0 3.0 0.00 0.00 0.00 63 1013.5
20260502223923 66 343 3.0 5.0 0.00 0.00 0.00 65 1013.9
20260502223421 66 267 0.0 3.0 0.00 0.00 0.00 67 1013.9
20260502222919 65 316 5.0 6.0 0.00 0.00 0.00 65 1014.1
20260502222416 66 97 1.0 3.0 0.00 0.00 0.00 63 1013.8
20260502221916 65 311 4.0 7.0 0.00 0.00 0.00 65 1014.2
20260502221413 65 336 2.0 8.0 0.00 0.00 0.00 67 1014.0
20260502220910 66 336 5.0 9.0 0.00 0.00 0.00 65 1014.1
20260502220406 66 7 0.0 5.0 0.00 0.00 0.00 64 1014.2
20260502215903 66 48 5.0 5.0 0.00 0.00 0.00 63 1014.2
20260502215400 66 333 2.0 6.0 0.00 0.00 0.00 65 1014.2
20260502214857 65 324 1.0 4.0 0.00 0.00 0.00 65 1014.4
20260502214353 63 297 3.0 5.0 0.00 0.00 0.00 68 1014.5
20260502213851 64 347 6.0 9.0 0.00 0.00 0.00 68 1014.3
20260502213348 64 338 6.0 11.0 0.00 0.00 0.00 66 1014.4
20260502212847 64 344 7.0 9.0 0.00 0.00 0.00 65 1014.4
20260502212345 62 316 3.0 6.0 0.00 0.00 0.00 68 1014.5
20260502211842 62 339 7.0 8.0 0.00 0.00 0.00 69 1014.5
20260502211337 64 357 7.0 8.0 0.00 0.00 0.00 66 1014.7
20260502210835 62 347 5.0 7.0 0.00 0.00 0.00 69 1014.9
20260502210332 61 310 9.0 11.0 0.00 0.00 0.00 70 1014.6
20260502205829 62 292 5.0 10.0 0.00 0.00 0.00 69 1014.8
20260502205325 62 199 0.0 7.0 0.00 0.00 0.00 66 1014.9
20260502204822 63 86 5.0 8.0 0.00 0.00 0.00 66 1015.1
20260502204319 62 327 4.0 7.0 0.00 0.00 0.00 68 1015.0
20260502203817 61 30 2.0 5.0 0.00 0.00 0.00 67 1015.0
20260502203315 59 344 3.0 6.0 0.00 0.00 0.00 71 1015.1
20260502202814 59 345 7.0 8.0 0.00 0.00 0.00 72 1015.2
20260502202313 59 343 3.0 6.0 0.00 0.00 0.00 74 1015.2
20260502201810 59 306 5.0 9.0 0.00 0.00 0.00 72 1015.5
20260502201306 59 285 4.0 7.0 0.00 0.00 0.00 72 1015.7
20260502200802 60 67 3.0 9.0 0.00 0.00 0.00 69 1015.5
20260502200258 59 1 2.0 11.0 0.00 0.00 0.00 70 1015.6
20260502195757 60 73 1.0 5.0 0.00 0.00 0.00 67 1015.7
20260502195253 62 39 5.0 9.0 0.00 0.00 0.00 65 1015.7
20260502194749 60 78 4.0 5.0 0.00 0.00 0.00 69 1015.8
20260502194247 60 326 4.0 7.0 0.00 0.00 0.00 70 1015.8
20260502193742 58 309 2.0 5.0 0.00 0.00 0.00 74 1015.9
20260502193240 58 306 4.0 7.0 0.00 0.00 0.00 74 1015.9
20260502192740 59 24 5.0 6.0 0.00 0.00 0.00 72 1016.0
20260502192238 62 49 7.0 7.0 0.00 0.00 0.00 64 1016.2
20260502191734 60 84 2.0 6.0 0.00 0.00 0.00 67 1016.5
20260502191232 59 27 4.0 6.0 0.00 0.00 0.00 71 1016.4
20260502190729 58 80 4.0 7.0 0.00 0.00 0.00 72 1016.0